Alturas, CA

5:13 PM PDT on October 20, 2017 (GMT -0700)
Alturas Municipal

Weather History for KAAT - May, 2014

Change the Weather History Date:

Sunday, May 25, 2014

  Actual Average Record
Temperature  
Mean Temperature 62 °F 54 °F  
Max Temperature 84 °F 71 °F 91 °F (1992)
Min Temperature 39 °F 37 °F 24 °F (1911)
Degree Days  
Heating Degree Days 3 11  
Month to date heating degree days 286 350  
Since 1 July heating degree days 6335 6694  
Cooling Degree Days 0 0  
Month to date cooling degree days 0 0  
Year to date cooling degree days 0 0  
Growing Degree Days 10 (Base 50)    
Moisture  
Dew Point 33 °F    
Average Humidity 47    
Maximum Humidity 79    
Minimum Humidity 14    
Precipitation  
Precipitation 0.00 in 0.03 in 0.21 in (2011)
Month to date precipitation 0.61 1.11  
Year to date precipitation 4.99 7.29  
Sea Level Pressure  
Sea Level Pressure 29.98 in    
Wind  
Wind Speed 5 mph (WNW)    
Max Wind Speed 18 mph    
Max Gust Speed 23 mph    
Visibility 10 miles    
Events      
T = Trace of Precipitation, MM = Missing Value Source: NWS Daily Summary

Daily Weather History Graph

Daily Weather History Graph

Search for Another Location

Airport or City:

Trip Planner

Search our weather history database for the weather conditions in past years. The results will help you decide how hot, cold, wet, or windy it might be!

Date:

Astronomy

May. 25, 2014 Rise Set
Actual Time 5:34 AM PDT 8:24 PM PDT
Civil Twilight 5:02 AM PDT 8:56 PM PDT
Nautical Twilight 4:21 AM PDT 9:38 PM PDT
Astronomical Twilight 3:33 AM PDT 10:25 PM PDT
Moon 3:44 AM PDT (5/25) 5:28 PM PDT (5/25)
Length of Visible Light 15h 54m
Length of Day
14h 49m
Waning Crescent, 10% of the Moon is Illuminated
May 25
Waning Crescent
May 28
New
Jun 5
First Quarter
Jun 12
Full
Jun 19
Last Quarter

Hourly Weather History & Observations

Time (PDT) Temp. Windchill Dew Point Humidity Pressure Visibility Wind Dir Wind Speed Gust Speed Precip Events Conditions
12:55 AM 52.0 °F - 30.9 °F 45% 30.04 in 10.0 mi Calm Calm - N/A   Clear
1:55 AM 50.0 °F - 30.0 °F 46% 30.04 in 10.0 mi Calm Calm - N/A   Clear
2:55 AM 44.1 °F - 34.0 °F 68% 30.05 in 10.0 mi Calm Calm - N/A   Clear
3:55 AM 43.0 °F 41.3 °F 34.0 °F 71% 30.04 in 10.0 mi North 3.5 mph - N/A   Clear
4:55 AM 39.9 °F - 33.1 °F 77% 30.05 in 10.0 mi Calm Calm - N/A   Clear
5:55 AM 39.9 °F - 32.0 °F 73% 30.06 in 10.0 mi Calm Calm - N/A   Clear
6:55 AM 46.0 °F - 34.0 °F 63% 30.06 in 10.0 mi Calm Calm - N/A   Clear
8:55 AM 60.1 °F - 36.0 °F 41% 30.04 in 10.0 mi Calm Calm - N/A   Clear
9:55 AM 66.0 °F - 37.0 °F 34% 30.03 in 10.0 mi Calm Calm - N/A   Clear
10:55 AM 70.0 °F - 36.0 °F 29% 30.00 in 10.0 mi NNW 3.5 mph - N/A   Clear
11:55 AM 75.0 °F - 37.0 °F 25% 29.99 in 10.0 mi North - - N/A   Clear
12:55 PM 78.1 °F - 35.1 °F 21% 29.98 in 10.0 mi West 5.8 mph - N/A   Clear
1:55 PM 78.1 °F - 30.0 °F 17% 29.96 in 10.0 mi SSW 8.1 mph 17.3 mph N/A   Clear
2:55 PM 81.0 °F - 34.0 °F 18% 29.95 in 10.0 mi West 5.8 mph - N/A   Clear
3:55 PM 82.9 °F - 28.9 °F 14% 29.92 in 10.0 mi WSW 11.5 mph - N/A   Clear
4:55 PM 82.9 °F - 34.0 °F 17% 29.91 in 10.0 mi West 17.3 mph 21.9 mph N/A   Clear
5:55 PM 82.0 °F - 34.0 °F 18% 29.90 in 10.0 mi West 16.1 mph 23.0 mph N/A   Clear
6:55 PM 79.0 °F - 32.0 °F 18% 29.90 in 10.0 mi NW 11.5 mph 21.9 mph N/A   Clear
7:02 PM 78.1 °F - 30.9 °F 18% 30.00 in 10.0 mi NNW 12.7 mph - N/A   Clear
7:55 PM 73.9 °F - 27.0 °F 18% 29.91 in 10.0 mi NW 11.5 mph - N/A   Clear
8:55 PM 66.0 °F - 26.1 °F 22% 29.94 in 10.0 mi SW 3.5 mph - N/A   Clear
9:55 PM 64.0 °F - 28.0 °F 26% 29.95 in 10.0 mi West 9.2 mph - N/A   Clear
10:55 PM 64.9 °F - 36.0 °F 34% 29.95 in 10.0 mi NW 8.1 mph - N/A   Clear
11:55 PM 57.9 °F - 37.0 °F 46% 29.96 in 10.0 mi Calm Calm - N/A   Clear